Location: *
(29.1167°S, 130.0000°E)
Time: 21:22:23
(UTC+00:00)

GPS 2-04 Rocket1 - Visible Passes

Search period start: 18 October 2019 00:00
Search period end: 28 October 2019 00:00
Orbit: 419 x 552 km, 35.6° (Epoch: 17 October)

Date Brightness Start Highest point End Pass type
(mag) Time Alt. Az. Time Alt. Az. Time Alt. Az.
18 Oct 3.7 11:22:42 10° WNW 11:24:56 37° WNW 11:24:56 37° WNW visible
19 Oct 2.3 10:55:27 10° WNW 10:58:58 82° SSW 10:59:46 51° ESE visible
20 Oct 2.4 10:28:12 10° WNW 10:31:41 80° SSW 10:34:26 16° ESE visible
20 Oct 5.6 12:08:13 10° WSW 12:08:44 13° WSW 12:08:44 13° WSW visible
21 Oct 2.4 10:00:57 10° WNW 10:04:24 79° SSW 10:07:58 10° ESE visible
21 Oct 4.5 11:40:59 10° WSW 11:43:13 26° SW 11:43:13 26° SW visible
22 Oct 3.9 11:13:44 10° WSW 11:16:52 30° S 11:17:35 27° SSE visible
23 Oct 4.0 10:46:29 10° WSW 10:49:35 29° S 10:51:49 16° SE visible
24 Oct 4.0 10:19:13 10° WSW 10:22:17 29° S 10:25:25 10° SE visible
24 Oct 5.2 11:59:02 10° SW 12:00:16 18° SW 12:00:16 18° SW visible
25 Oct 4.0 11:31:46 10° SW 11:34:21 30° SSW 11:34:21 30° SSW visible
26 Oct 3.6 11:04:30 10° SW 11:07:39 32° S 11:08:25 28° SE visible
27 Oct 3.7 10:37:12 10° SW 10:40:21 32° S 10:42:28 17° ESE visible
27 Oct 5.7 12:16:30 10° WSW 12:16:44 12° WSW 12:16:44 12° WSW visible
